Time,TemperatureF,DewpointF,PressureIn,WindDirection,WindDirectionDegrees,WindSpeedMPH,WindSpeedGustMPH,Humidity,HourlyPrecipIn,Conditions,Clouds,dailyrainin,SoftwareType,DateUTC
2013-04-17 00:12:00,31.0,21.0,-100.00,SSE,155,2.0,14.0,65,-99.99,,,-99.99,,2013-04-17 07:12:00,
2013-04-17 00:21:00,30.0,22.0,-100.00,WNW,295,3.0,16.0,73,-99.99,,,-99.99,,2013-04-17 07:21:00,
2013-04-17 00:22:00,31.0,21.0,-100.00,SSE,155,2.0,14.0,65,-99.99,,,-99.99,,2013-04-17 07:22:00,
2013-04-17 00:32:00,31.0,20.0,-100.00,NW,304,2.0,7.0,64,-99.99,,,-99.99,,2013-04-17 07:32:00,
2013-04-17 00:42:00,31.0,22.0,-100.00,North,352,2.0,10.0,68,-99.99,,,-99.99,,2013-04-17 07:42:00,
2013-04-17 00:52:00,30.0,22.0,-100.00,WNW,295,3.0,16.0,73,-99.99,,,-99.99,,2013-04-17 07:52:00,
2013-04-17 01:02:00,30.0,22.0,-100.00,WNW,295,3.0,16.0,73,-99.99,,,-99.99,,2013-04-17 08:02:00,
2013-04-17 01:12:00,30.0,22.0,-100.00,WNW,295,3.0,16.0,73,-99.99,,,-99.99,,2013-04-17 08:12:00,
2013-04-17 01:52:00,30.0,21.0,-100.00,West,271,3.0,10.0,70,-99.99,,,-99.99,,2013-04-17 08:52:00,
2013-04-17 02:02:00,29.0,21.0,-100.00,WNW,294,3.0,14.0,71,-99.99,,,-99.99,,2013-04-17 09:02:00,
2013-04-17 02:12:00,29.0,21.0,-100.00,WNW,294,3.0,14.0,71,-99.99,,,-99.99,,2013-04-17 09:12:00,
2013-04-17 02:22:00,30.0,20.0,-100.00,WNW,302,3.0,15.0,67,-99.99,,,-99.99,,2013-04-17 09:22:00,
2013-04-17 02:32:00,30.0,20.0,-100.00,WNW,302,3.0,15.0,67,-99.99,,,-99.99,,2013-04-17 09:32:00,
2013-04-17 02:42:00,30.0,20.0,-100.00,WNW,302,3.0,15.0,67,-99.99,,,-99.99,,2013-04-17 09:42:00,
2013-04-17 03:32:00,29.0,16.0,-100.00,WNW,302,2.0,11.0,59,-99.99,,,-99.99,,2013-04-17 10:32:00,
2013-04-17 03:43:00,29.0,18.0,-100.00,NNW,328,3.0,14.0,63,-99.99,,,-99.99,,2013-04-17 10:43:00,
2013-04-17 03:52:00,29.0,16.0,-100.00,NNW,342,2.0,15.0,59,-99.99,,,-99.99,,2013-04-17 10:52:00,
2013-04-17 04:02:00,29.0,16.0,-100.00,WNW,302,2.0,11.0,59,-99.99,,,-99.99,,2013-04-17 11:02:00,
2013-04-17 04:11:00,29.0,16.0,-100.00,WNW,302,2.0,11.0,59,-99.99,,,-99.99,,2013-04-17 11:11:00,
2013-04-17 04:22:00,29.0,16.0,-100.00,WNW,302,2.0,11.0,59,-99.99,,,-99.99,,2013-04-17 11:22:00,
2013-04-17 05:02:00,27.0,14.0,-100.00,NW,312,2.0,9.0,57,-99.99,,,-99.99,,2013-04-17 12:02:00,
2013-04-17 05:12:00,28.0,14.0,-100.00,NNW,337,4.0,16.0,56,-99.99,,,-99.99,,2013-04-17 12:12:00,
2013-04-17 05:22:00,27.0,14.0,-100.00,NNW,344,2.0,14.0,58,-99.99,,,-99.99,,2013-04-17 12:22:00,
2013-04-17 05:32:00,27.0,14.0,-100.00,NW,312,2.0,9.0,57,-99.99,,,-99.99,,2013-04-17 12:32:00,
2013-04-17 05:42:00,27.0,14.0,-100.00,NW,312,2.0,9.0,57,-99.99,,,-99.99,,2013-04-17 12:42:00,
2013-04-17 05:52:00,27.0,14.0,-100.00,NW,312,2.0,9.0,57,-99.99,,,-99.99,,2013-04-17 12:52:00,
2013-04-17 08:43:00,30.0,14.0,-100.00,ENE,72,3.0,10.0,50,-99.99,,,-99.99,,2013-04-17 15:43:00,
2013-04-17 08:53:00,30.0,14.0,-100.00,ENE,72,3.0,10.0,50,-99.99,,,-99.99,,2013-04-17 15:53:00,
2013-04-17 09:03:00,30.0,14.0,-100.00,ENE,72,3.0,10.0,50,-99.99,,,-99.99,,2013-04-17 16:03:00,
2013-04-17 09:12:00,30.0,14.0,-100.00,ENE,72,3.0,10.0,50,-99.99,,,-99.99,,2013-04-17 16:12:00,
2013-04-17 13:33:00,42.0,13.0,-100.00,ENE,73,5.0,13.0,30,-99.99,,,-99.99,,2013-04-17 20:33:00,
2013-04-17 13:42:00,42.0,13.0,-100.00,ENE,73,5.0,13.0,30,-99.99,,,-99.99,,2013-04-17 20:42:00,
2013-04-17 13:52:00,42.0,13.0,-100.00,ENE,73,5.0,13.0,30,-99.99,,,-99.99,,2013-04-17 20:52:00,
2013-04-17 14:02:00,42.0,13.0,-100.00,ENE,73,5.0,13.0,30,-99.99,,,-99.99,,2013-04-17 21:02:00,
2013-04-17 16:32:00,45.0,9.0,-100.00,North,10,6.0,19.0,23,-99.99,,,-99.99,,2013-04-17 23:32:00,
2013-04-17 16:42:00,45.0,9.0,-100.00,North,10,6.0,19.0,23,-99.99,,,-99.99,,2013-04-17 23:42:00,
2013-04-17 16:52:00,45.0,9.0,-100.00,North,10,6.0,19.0,23,-99.99,,,-99.99,,2013-04-17 23:52:00,
2013-04-17 17:02:00,45.0,9.0,-100.00,North,10,6.0,19.0,23,-99.99,,,-99.99,,2013-04-18 00:02:00,
2013-04-17 18:22:00,42.0,9.0,-100.00,NNE,18,4.0,18.0,25,-99.99,,,-99.99,,2013-04-18 01:22:00,
2013-04-17 18:32:00,42.0,9.0,-100.00,NNE,18,4.0,18.0,25,-99.99,,,-99.99,,2013-04-18 01:32:00,
2013-04-17 18:42:00,42.0,9.0,-100.00,NNE,18,4.0,18.0,25,-99.99,,,-99.99,,2013-04-18 01:42:00,
2013-04-17 18:52:00,42.0,9.0,-100.00,NNE,18,4.0,18.0,25,-99.99,,,-99.99,,2013-04-18 01:52:00,